[[{"header":{"parameterUnit":"m.s-1","parameterCategory":1,"la1":30.2991,"la2":30.254,"lo1":-89.0895,"lo2":-89.0444,"dy":0.0017,"dx":0.0017,"nx":28,"ny":28,"refTime":"2026-01-10T03:00:00:Z","depth":0,"parameterNumber":2,"parameterNumberName":"U-component_of_WINDS"},"data":[0,0,0,0,0,0,0,0,0,0,0,0,0,0,0,0,0,0,0,0,0,0,0,0,0,0,0,0,0,0,0,0,0,0,0,0,0,0,0,0,0,0,0,0,0,0,0,0,0,0,0,0,0,0,0,0,0,0,2.6071,2.607,0,2.6034,2.6034,2.6033,2.5976,2.5975,2.5974,2.5973,2.5936,2.5936,2.5936,0,0,0,0,0,0,0,0,0,0,0,0,0,2.6093,2.6093,2.6071,2.607,2.607,2.6034,2.6034,2.6033,2.5976,2.5975,2.5974,2.5973,2.5936,2.5936,2.5936,0,0,0,0,0,0,0,0,0,0,0,0,0,2.6073,2.6093,2.6071,2.6037,2.6034,2.6034,2.6033,2.6033,2.5976,2.5975,2.5973,2.5972,2.5936,2.5936,2.5936,2.5966,0,0,2.5936,2.5936,0,0,0,0,0,0,0,0,2.6074,2.6072,2.6043,2.604,2.6036,2.6008,2.6028,2.6011,2.5977,2.5998,2.5973,2.5971,2.5961,2.5959,2.5956,2.5965,2.5963,2.5936,2.5936,2.5936,2.5936,0,0,0,0,0,0,0,2.6075,2.6073,2.6056,2.6042,2.6038,2.6024,2.602,2.6024,2.5989,2.5996,2.5992,2.5988,2.5959,2.5956,2.5954,2.5963,2.5936,2.5936,2.5936,2.5936,2.5995,2.5997,0,0,0,0,0,0,2.6082,2.6075,2.6057,2.6055,2.6051,2.6025,2.602,2.6018,2.5989,2.5983,2.599,2.5986,2.5957,2.5954,2.5953,2.5987,2.5936,2.5936,2.5936,2.5994,2.5996,2.5997,0,0,0,0,0,0,2.6082,2.6081,2.6059,2.6064,2.606,2.6026,2.6025,2.6019,2.6015,2.5984,2.5977,2.5993,2.5955,2.5953,2.5963,2.5985,2.5936,2.5936,2.5992,2.5994,2.5997,2.6055,0,0,0,0,0,0,2.6083,2.6081,2.6092,2.6064,2.606,2.607,2.6026,2.6019,2.6015,2.601,2.5985,2.5979,2.5954,2.5964,2.5963,2.5984,2.5936,2.599,2.5993,2.5996,2.6051,2.6059,2.6066,0,0,0,0,0,2.6084,2.611,2.6093,2.6091,2.6073,2.6072,2.6069,2.6039,2.6017,2.6028,2.6008,2.598,2.5982,2.5965,2.5964,2.5985,2.5988,2.5992,2.5996,2.6048,2.6058,2.6066,0,0,0,0,0,0,2.6141,2.6106,2.6086,2.6104,2.6091,2.6062,2.6075,2.605,2.6044,2.6039,2.6002,2.5997,2.6013,2.6,2.5982,2.6013,2.5981,2.5985,2.6021,2.603,2.6038,2.604,2.5936,0,0,0,0,0,2.6156,2.6158,2.6127,2.6145,2.614,2.6109,2.6107,2.6085,2.607,2.6064,2.6045,2.6032,2.603,2.6029,2.6025,2.6049,2.6043,2.6063,2.607,2.6076,2.608,2.6092,2.6101,2.6009,2.6009,2.6009,0,0,2.6186,2.6167,2.617,2.6156,2.6144,2.6147,2.6104,2.6109,2.6111,2.6065,2.6074,2.606,2.6043,2.606,2.6067,2.605,2.6104,2.6081,2.6086,2.6086,2.6097,2.6105,2.6113,2.6012,2.6011,2.6011,0,0,2.6243,2.6228,2.6243,2.6231,2.6212,2.6192,2.6195,2.617,2.6158,2.6166,2.6132,2.6134,2.6131,2.6121,2.6115,2.6169,2.6143,2.6168,2.6208,2.622,2.6227,2.6233,2.6253,2.626,2.6172,2.6172,2.6172,0,2.6283,2.6286,2.6253,2.626,2.6255,2.6214,2.6228,2.6218,2.62,2.6198,2.6179,2.6174,2.616,2.6175,2.6188,2.6184,2.6188,2.6171,2.6228,2.6234,2.624,2.6258,2.6265,2.6175,2.6175,2.6175,2.6174,0,2.6336,2.6339,2.6352,2.6335,2.6332,2.6343,2.6312,2.6312,2.6291,2.6272,2.6282,2.6263,2.6255,2.6257,2.6236,2.6269,2.6259,2.6235,2.6202,2.6252,2.6269,2.6275,2.618,2.6179,2.6178,2.6177,0,0,2.6427,2.6393,2.6398,2.639,2.6367,2.6369,2.6378,2.637,2.6371,2.636,2.6367,2.6365,2.6343,2.6337,2.6314,2.6325,2.6369,2.6299,2.6298,2.6313,2.6405,2.6423,2.6432,2.6352,2.6353,2.6354,2.6406,0,2.648,2.6493,2.6464,2.6485,2.6487,2.6448,2.6456,2.6443,2.6426,2.6425,2.6407,2.6406,2.6377,2.6373,2.6381,2.6362,2.6387,2.6358,2.6358,2.6359,2.6364,2.644,2.646,2.651,2.6412,2.6413,2.6414,0,2.6542,2.6534,2.6555,2.6531,2.6531,2.6539,2.6529,2.6529,2.6514,2.6501,2.6494,2.6468,2.6476,2.6444,2.6454,2.6435,2.6434,2.6424,2.6425,2.6425,2.639,2.6442,2.6525,2.6533,2.6424,2.6423,2.6422,0,2.6608,2.6602,2.6614,2.6608,2.6581,2.6587,2.6576,2.6559,2.6556,2.6548,2.6546,2.6539,2.6535,2.6531,2.6504,2.6483,2.6517,2.6483,2.6507,2.6508,2.6516,2.6516,2.6601,2.6515,2.6515,2.6515,2.6515,0,2.6669,2.6684,2.6643,2.665,2.6665,2.6632,2.6648,2.6633,2.6618,2.6622,2.6588,2.6593,2.6557,2.6557,2.6536,2.6548,2.6547,2.6537,2.6531,2.654,2.6541,2.6539,2.6535,2.6517,2.6516,2.6516,2.6516,0,2.6745,2.6718,2.6728,2.6701,2.6695,2.6707,2.6684,2.669,2.6671,2.6677,2.6676,2.6646,2.6645,2.6618,2.6611,2.6597,2.6618,2.6605,2.6623,2.6619,2.6645,2.6643,2.6731,2.6741,2.6649,2.665,2.6651,0,2.6786,2.6796,2.677,2.677,2.6761,2.6762,2.6759,2.6727,2.6725,2.6709,2.6717,2.6713,2.6708,2.6709,2.6687,2.6682,2.6669,2.67,2.6668,2.6677,2.667,2.667,2.6671,2.6707,2.6709,2.6709,2.671,0,2.6862,2.6848,2.6845,2.6838,2.6835,2.6828,2.6819,2.6821,2.6786,2.6786,2.6784,2.6781,2.6774,2.6771,2.6762,2.6751,2.6725,2.6721,2.6726,2.6735,2.6745,2.6741,2.6642,2.6719,2.6718,2.6717,2.6717,2.6716,2.6922,2.6929,2.6912,2.691,2.69,2.6892,2.6896,2.6878,2.6876,2.6868,2.6849,2.6851,2.6836,2.6821,2.6812,2.6813,2.6797,2.6805,2.6807,2.6809,2.6815,2.6745,2.6811,2.6811,2.6811,2.6811,2.681,0,2.6996,2.6984,2.6982,2.697,2.6969,2.6944,2.6933,2.6933,2.6935,2.6923,2.6919,2.6918,2.6915,2.6893,2.6888,2.6893,2.6881,2.6893,2.6892,2.689,2.6829,2.6825,2.6902,2.6902,2.6902,2.6902,2.6902,2.6902,2.7035,2.7046,2.7031,2.7037,2.7024,2.7026,2.7021,2.7014,2.7004,2.7004,2.7002,2.6987,2.6971,2.6964,2.6961,2.6954,2.6954,2.697,2.696,2.6903,2.6894,2.6886,2.6882,2.697,2.697,2.7021,2.7021,2.7022]},{"header":{"parameterUnit":"m.s-1","parameterCategory":1,"la1":30.2991,"la2":30.254,"lo1":-89.0895,"lo2":-89.0444,"dy":0.0017,"dx":0.0017,"nx":28,"ny":28,"refTime":"2026-01-10T03:00:00:Z","depth":0,"parameterNumber":3,"parameterNumberName":"V-component_of_WINDS"},"data":[0,0,0,0,0,0,0,0,0,0,0,0,0,0,0,0,0,0,0,0,0,0,0,0,0,0,0,0,0,0,0,0,0,0,0,0,0,0,0,0,0,0,0,0,0,0,0,0,0,0,0,0,0,0,0,0,0,0,-0.9251,-0.9248,0,-0.8956,-0.8953,-0.895,-0.8887,-0.889,-0.8892,-0.8894,-0.8584,-0.8574,-0.8564,0,0,0,0,0,0,0,0,0,0,0,0,0,-0.9752,-0.9744,-0.9251,-0.9247,-0.9244,-0.8957,-0.8953,-0.8949,-0.8887,-0.889,-0.8892,-0.8895,-0.8588,-0.8575,-0.8563,0,0,0,0,0,0,0,0,0,0,0,0,0,-0.9504,-0.9741,-0.9252,-0.9178,-0.9169,-0.8958,-0.8953,-0.8948,-0.8886,-0.889,-0.8893,-0.8896,-0.8592,-0.8577,-0.8561,-0.84,0,0,-0.8514,-0.8507,0,0,0,0,0,0,0,0,-0.9518,-0.9485,-0.9193,-0.9183,-0.9172,-0.8962,-0.9016,-0.8764,-0.8886,-0.8993,-0.8894,-0.8898,-0.8707,-0.8682,-0.8619,-0.8385,-0.8372,-0.8513,-0.8503,-0.8497,-0.8492,0,0,0,0,0,0,0,-0.9535,-0.9498,-0.9134,-0.9189,-0.9176,-0.9158,-0.9126,-0.8968,-0.8835,-0.8984,-0.8979,-0.8946,-0.8702,-0.8634,-0.8612,-0.8367,-0.8513,-0.85,-0.849,-0.8484,-0.7986,-0.7982,0,0,0,0,0,0,-0.9567,-0.9513,-0.9143,-0.9125,-0.9357,-0.9146,-0.9111,-0.9026,-0.8836,-0.8811,-0.8943,-0.8944,-0.8659,-0.863,-0.86,-0.8399,-0.8497,-0.8482,-0.8474,-0.799,-0.7985,-0.7981,0,0,0,0,0,0,-0.9578,-0.9534,-0.9155,-0.9317,-0.9268,-0.9134,-0.9039,-0.9018,-0.8951,-0.8805,-0.8781,-0.8899,-0.8661,-0.8622,-0.8451,-0.8388,-0.8475,-0.8461,-0.7995,-0.7989,-0.7983,-0.7996,0,0,0,0,0,0,-0.9592,-0.9539,-0.9478,-0.9317,-0.926,-0.9013,-0.9035,-0.901,-0.8926,-0.8924,-0.8758,-0.8733,-0.866,-0.8474,-0.8435,-0.8368,-0.8449,-0.8,-0.7992,-0.7985,-0.8,-0.7991,-0.7983,0,0,0,0,0,-0.961,-0.9491,-0.9475,-0.9431,-0.9181,-0.9009,-0.8976,-0.8897,-0.8921,-0.8857,-0.8764,-0.8738,-0.8401,-0.8457,-0.8413,-0.834,-0.8003,-0.7994,-0.7985,-0.8004,-0.7993,-0.7983,0,0,0,0,0,0,-0.9645,-0.9468,-0.9449,-0.9274,-0.9158,-0.8999,-0.8917,-0.8887,-0.876,-0.8763,-0.8667,-0.863,-0.8465,-0.8385,-0.8451,-0.8174,-0.8203,-0.8185,-0.8232,-0.822,-0.8212,-0.8234,-0.8437,0,0,0,0,0,-0.9633,-0.9511,-0.9362,-0.9222,-0.9165,-0.9051,-0.8974,-0.8923,-0.8797,-0.8747,-0.864,-0.8517,-0.8384,-0.8297,-0.8166,-0.7988,-0.7951,-0.7916,-0.7908,-0.7901,-0.7886,-0.7787,-0.777,-0.7952,-0.7952,-0.7952,0,0,-0.9605,-0.9494,-0.9422,-0.9226,-0.913,-0.9004,-0.901,-0.8876,-0.8781,-0.8725,-0.8558,-0.8476,-0.8332,-0.8157,-0.8075,-0.8085,-0.7828,-0.789,-0.7886,-0.7874,-0.7776,-0.7759,-0.7744,-0.7946,-0.7947,-0.7948,0,0,-0.9491,-0.9395,-0.9269,-0.9173,-0.9028,-0.8953,-0.8923,-0.8769,-0.8713,-0.8544,-0.85,-0.8384,-0.8156,-0.8055,-0.7974,-0.7823,-0.7795,-0.7783,-0.7737,-0.7641,-0.7627,-0.7614,-0.756,-0.7542,-0.7769,-0.7769,-0.7769,0,-0.9475,-0.9286,-0.9206,-0.9075,-0.899,-0.8937,-0.8807,-0.8716,-0.8535,-0.8477,-0.8492,-0.8205,-0.8104,-0.7905,-0.7869,-0.7805,-0.7766,-0.7801,-0.7636,-0.7622,-0.7608,-0.7556,-0.7536,-0.7768,-0.7768,-0.7768,-0.7768,0,-0.9273,-0.9142,-0.9057,-0.8887,-0.8791,-0.8661,-0.8561,-0.8473,-0.8431,-0.8354,-0.8182,-0.806,-0.7903,-0.7852,-0.7808,-0.7647,-0.7658,-0.7656,-0.7683,-0.7592,-0.7541,-0.752,-0.7768,-0.7768,-0.7768,-0.7768,0,0,-0.9172,-0.8961,-0.8931,-0.8853,-0.869,-0.8586,-0.8453,-0.8303,-0.823,-0.8106,-0.7992,-0.78,-0.7797,-0.7706,-0.7649,-0.7565,-0.7454,-0.7573,-0.7568,-0.7555,-0.7269,-0.7272,-0.725,-0.7435,-0.743,-0.7427,-0.7281,0,-0.9039,-0.8803,-0.8728,-0.853,-0.8408,-0.8356,-0.8239,-0.8125,-0.805,-0.7933,-0.7848,-0.7715,-0.7721,-0.7665,-0.758,-0.7486,-0.7395,-0.7495,-0.7325,-0.732,-0.7364,-0.7223,-0.7226,-0.7094,-0.726,-0.7257,-0.7254,0,-0.8852,-0.8729,-0.852,-0.8373,-0.8319,-0.8216,-0.8073,-0.7962,-0.7831,-0.7782,-0.7681,-0.7632,-0.7489,-0.7525,-0.7326,-0.7396,-0.7321,-0.7265,-0.7258,-0.7239,-0.7282,-0.7201,-0.705,-0.703,-0.7222,-0.7225,-0.7227,0,-0.8801,-0.8582,-0.8429,-0.8364,-0.8188,-0.8118,-0.804,-0.7913,-0.7828,-0.7701,-0.7644,-0.7502,-0.7424,-0.7314,-0.7227,-0.7261,-0.7035,-0.7064,-0.6989,-0.6991,-0.6944,-0.6948,-0.6779,-0.6896,-0.6896,-0.6897,-0.6897,0,-0.866,-0.8535,-0.8404,-0.831,-0.8167,-0.8081,-0.7941,-0.786,-0.7747,-0.7635,-0.758,-0.7475,-0.7367,-0.7247,-0.7178,-0.7024,-0.6988,-0.6944,-0.6927,-0.6949,-0.6954,-0.6899,-0.6906,-0.6891,-0.6893,-0.6894,-0.6895,0,-0.8579,-0.8487,-0.8317,-0.8165,-0.8124,-0.8025,-0.7894,-0.7799,-0.7722,-0.7581,-0.7542,-0.742,-0.7276,-0.7179,-0.6994,-0.6947,-0.678,-0.6765,-0.6826,-0.6817,-0.6748,-0.6756,-0.6538,-0.6504,-0.6644,-0.6643,-0.6642,0,-0.8496,-0.8399,-0.8237,-0.816,-0.8083,-0.7958,-0.7872,-0.7782,-0.7693,-0.7538,-0.7461,-0.7315,-0.7193,-0.6966,-0.6859,-0.6717,-0.6698,-0.6631,-0.6676,-0.6701,-0.6697,-0.6704,-0.6693,-0.6624,-0.6623,-0.6622,-0.6621,0,-0.8359,-0.8318,-0.8197,-0.8059,-0.7958,-0.7844,-0.773,-0.7669,-0.7559,-0.7462,-0.7316,-0.7222,-0.7035,-0.6889,-0.6738,-0.6655,-0.6619,-0.6608,-0.6583,-0.6605,-0.6644,-0.6622,-0.6807,-0.6614,-0.6614,-0.6615,-0.6615,-0.6616,-0.8274,-0.8185,-0.8058,-0.7924,-0.783,-0.7725,-0.7629,-0.754,-0.7418,-0.7261,-0.7214,-0.7062,-0.6933,-0.6726,-0.6642,-0.652,-0.6526,-0.649,-0.648,-0.6473,-0.6474,-0.6664,-0.6492,-0.6492,-0.6492,-0.6492,-0.6492,0,-0.8134,-0.805,-0.7928,-0.7772,-0.7666,-0.7644,-0.7517,-0.7429,-0.7297,-0.7181,-0.7063,-0.6895,-0.6753,-0.6636,-0.649,-0.6415,-0.6395,-0.6379,-0.6384,-0.6366,-0.6476,-0.6513,-0.6398,-0.6398,-0.6398,-0.6398,-0.6399,-0.6399,-0.8049,-0.7898,-0.7842,-0.7643,-0.7558,-0.7411,-0.7341,-0.7242,-0.7149,-0.6965,-0.6849,-0.6774,-0.6656,-0.6501,-0.637,-0.6339,-0.6287,-0.6276,-0.6241,-0.6347,-0.6358,-0.6368,-0.6402,-0.6266,-0.6266,-0.614,-0.6139,-0.6138]}]]